Temp
80 75 73 78 82 83 82 80 78 79 83 80 79 81 79 80 82 80 80 82 84 87 91 92 92 93 92 92 89 88 87 86 88 89 89 90 90 86 90 91 90 89 89 88
75 72 81 83 81 79 80 78 78 79 82 81 77 79 80 81 81 82 81 80 80 85 89 90 91 92 91 90 89 87 87 86 87 90 90 92 90 91 93 92 91 91 90 89
73 78 81 79 77 76 79 78 77 77 79 82 76 75 76 77 82 79 79 82 84 84 88 89 90 91 92 90 89 88 86 86 87 89 89 87 89 87 89 86 90 92 91 91
76 81 77 77 76 79 74 80 78 77 77 73 81 63 73 77 77 74 79 78 82 83 86 91 91 91 92 92 92 90 88 86 87 87 89 86 90 90 93 92 91 91 91 91
73 75 75 74 77 80 77 81 79 79 77 77 76 74 72 78 73 76 79 80 83 88 86 89 93 93 94 94 93 92 88 87 88 87 87 86 87 92 93 94 85 86 89 91
77 82 80 80 81 81 81 78 77 79 79 68 77 76 68 71 68 75 79 82 83 81 87 86 94 95 94 96 94 94 88 86 86 87 86 86 87 89 90 90 84 88 92 91
72 74 77 78 75 80 79 76 65 63 64 66 79 75 64 70 71 73 75 78 82 87 82 84 90 93 93 93 93 93 89 85 86 86 87 86 86 86 87 87 90 90 93 94
66 61 72 75 75 74 75 77 69 56 62 68 75 67 59 74 77 75 69 70 75 80 86 81 82 93 93 93 92 91 89 85 86 87 86 86 86 89 91 90 94 93 95 95
67 62 72 72 76 75 75 70 81 72 76 71 71 66 72 75 75 73 66 64 67 75 86 87 91 92 94 93 92 91 89 86 87 88 86 86 86 86 90 89 90 93 93 96
70 61 70 71 74 76 75 80 69 72 60 59 66 63 62 64 65 68 63 60 63 68 76 86 84 89 92 95 94 92 88 83 85 88 89 88 88 87 88 89 88 90 92 92
74 70 65 70 67 68 71 71 73 76 72 65 61 61 62 61 61 62 61 61 61 64 68 73 68 73 88 94 92 93 92 90 86 88 89 87 87 89 88 89 89 89 90 90
69 72 64 64 67 69 70 68 71 67 63 71 71 54 62 61 63 63 62 62 63 64 65 68 71 71 72 79 88 91 92 92 91 90 88 88 85 86 89 88 89 90 88 89
69 68 59 59 66 67 66 67 71 72 74 67 66 55 59 61 62 63 63 64 64 65 65 64 67 66 65 65 71 78 87 92 94 91 89 87 85 86 84 88 88 89 88 89
67 68 61 60 61 67 61 63 66 70 67 69 69 52 51 56 58 61 63 65 67 68 68 68 66 64 65 64 62 67 73 82 87 88 89 86 85 85 87 85 87 88 88 88
69 59 63 61 61 62 61 61 62 64 66 64 66 54 54 57 59 61 65 68 67 66 70 72 73 71 69 68 65 64 65 68 76 84 84 85 85 81 84 85 85 88 88 88
66 58 61 57 59 60 59 61 63 64 64 67 59 48 59 62 62 62 63 65 67 68 69 71 72 73 73 71 70 68 64 64 66 73 79 82 81 83 84 85 86 86 87 87
61 61 57 55 57 57 54 62 63 64 64 68 58 59 61 62 64 65 66 67 66 67 68 69 71 73 73 74 74 73 73 68 65 64 69 73 75 78 80 83 84 84 85 86
58 58 59 61 55 45 58 66 66 63 63 66 64 61 64 64 66 67 67 66 66 67 68 69 72 73 74 76 76 75 76 73 68 65 64 67 70 70 73 77 79 80 83 84
64 61 56 52 53 54 56 59 60 59 57 65 64 64 66 67 68 64 66 66 66 67 68 70 72 72 72 73 74 74 74 74 72 71 66 66 66 65 68 71 73 72 78 81
62 61 56 53 48 46 58 64 67 66 55 65 67 64 64 66 61 64 65 66 66 68 69 68 69 71 72 72 74 71 73 73 73 73 71 66 66 65 64 65 67 71 72 77
52 53 50 52 49 57 61 63 66 49 55 66 66 65 63 63 64 62 65 65 66 66 66 67 68 68 69 70 69 67 69 71 73 73 73 72 68 65 65 65 66 66 69 71
50 48 46 51 47 45 64 60 54 60 64 64 64 63 62 62 63 63 64 63 64 64 65 67 66 66 68 68 67 66 66 69 70 70 72 72 71 73 73 69 66 66 67 68
45 54 49 54 57 59 64 61 63 65 63 62 62 63 63 63 63 63 63 63 64 65 65 67 66 64 66 67 66 63 64 66 66 67 69 71 72 71 73 70 68 67 70 67
56 58 53 53 61 59 63 62 63 64 63 64 64 63 62 61 62 62 63 64 64 65 64 65 64 63 63 65 65 64 65 65 65 65 67 71 72 71 71 73 74 69 69 73
58 57 53 54 59 59 61 63 63 62 63 63 64 63 62 61 62 62 63 62 63 63 63 63 61 61 62 64 63 65 65 65 64 65 68 70 73 73 73 73 70 64 66 65
57 51 48 50 61 60 61 64 65 62 61 62 62 61 62 62 61 62 62 63 63 62 62 61 60 59 60 60 61 62 65 64 63 64 67 71 73 74 75 74 75 57 53 52
MSLP
1007.76 1006.78 1005.48 1004.85 1004.25 1003.28 1003.08 1003.18 1003.44 1004.51 1005.54 1005.82 1006.12 1006.65 1008.44 1009.34 1009.83 1010.40 1011.06 1011.29 1011.43 1011.76 1012.44 1013.07 1013.86 1014.59 1015.13 1015.85 1016.66 1017.35 1017.83 1018.36 1018.70 1018.85 1018.79 1018.75 1018.95 1019.58 1019.83 1019.96 1020.18 1020.17 1020.34 1020.48
1007.37 1005.92 1005.30 1005.08 1004.99 1004.66 1003.91 1003.54 1003.70 1004.88 1005.29 1005.61 1006.46 1006.70 1007.80 1008.84 1009.48 1009.92 1010.58 1011.03 1011.40 1011.58 1012.05 1012.79 1013.58 1014.22 1014.97 1015.65 1016.41 1017.11 1017.79 1018.32 1018.59 1018.65 1018.72 1018.59 1018.99 1019.28 1019.18 1019.55 1019.81 1020.01 1020.34 1020.64
1005.72 1005.28 1005.68 1005.52 1005.38 1004.70 1004.04 1003.49 1003.86 1004.00 1005.12 1005.39 1006.16 1006.57 1007.71 1008.87 1009.17 1010.03 1010.65 1011.00 1011.04 1011.20 1011.54 1012.41 1013.16 1013.74 1014.56 1015.30 1016.12 1016.80 1017.59 1018.17 1018.51 1018.49 1018.86 1019.12 1018.97 1019.31 1019.37 1019.87 1019.90 1019.82 1020.09 1020.28
1005.49 1005.39 1005.75 1005.51 1004.98 1004.73 1003.86 1004.34 1004.48 1004.58 1004.40 1003.86 1005.48 1005.99 1007.54 1008.45 1009.51 1010.51 1010.69 1011.05 1011.21 1011.20 1011.55 1011.88 1012.59 1013.19 1013.85 1014.58 1015.49 1016.39 1017.26 1017.93 1018.44 1018.73 1018.61 1018.91 1018.44 1018.31 1018.32 1018.97 1019.57 1019.74 1020.02 1020.13
1005.04 1005.38 1005.51 1005.22 1004.83 1005.09 1004.06 1004.84 1004.84 1004.50 1004.24 1004.15 1004.86 1004.94 1007.50 1008.62 1009.62 1010.23 1010.66 1011.12 1011.23 1011.25 1011.52 1011.34 1011.84 1012.53 1013.25 1014.07 1014.78 1015.76 1016.77 1017.55 1017.97 1018.54 1018.62 1019.04 1018.68 1018.37 1018.76 1018.84 1019.94 1020.11 1020.20 1020.28
1005.19 1005.66 1005.58 1005.20 1005.32 1005.50 1005.36 1005.29 1005.22 1004.91 1004.00 1003.75 1003.44 1004.52 1007.89 1009.43 1011.21 1011.00 1011.20 1011.10 1011.08 1011.64 1011.66 1011.72 1011.32 1011.84 1012.81 1013.56 1014.30 1015.05 1016.19 1017.08 1017.74 1018.18 1018.68 1018.86 1018.79 1018.48 1018.75 1018.98 1019.71 1019.68 1019.82 1020.27
1006.06 1006.14 1006.71 1006.51 1005.77 1005.67 1005.54 1004.57 1004.18 1004.18 1003.61 1002.71 1003.93 1005.36 1009.25 1010.95 1012.00 1012.38 1012.55 1012.34 1011.90 1011.23 1011.58 1011.72 1011.15 1011.38 1012.18 1012.94 1013.81 1014.66 1015.66 1016.60 1017.26 1017.76 1018.17 1018.62 1019.08 1019.17 1019.06 1019.42 1019.23 1018.97 1019.02 1019.27
1005.58 1006.71 1006.77 1007.11 1006.12 1005.28 1005.03 1003.98 1002.48 1002.34 1002.35 1002.73 1005.03 1006.14 1010.32 1011.53 1012.40 1013.46 1014.40 1014.23 1013.61 1012.58 1011.53 1011.40 1011.79 1011.04 1011.67 1012.45 1013.32 1014.22 1014.98 1015.97 1016.64 1017.14 1017.62 1018.18 1018.66 1018.84 1018.88 1019.04 1018.64 1019.03 1018.46 1018.77
1005.68 1006.86 1007.95 1007.92 1007.18 1006.66 1005.08 1004.29 1003.34 1002.37 1002.20 1002.68 1005.04 1009.05 1010.88 1012.11 1013.09 1014.26 1015.18 1015.30 1014.51 1013.16 1010.81 1010.98 1010.86 1011.20 1011.40 1012.03 1012.85 1013.80 1014.58 1015.34 1015.99 1016.40 1017.13 1017.61 1018.17 1018.58 1018.39 1018.73 1019.08 1018.90 1018.81 1018.45
1007.06 1007.16 1008.13 1008.26 1008.01 1007.33 1006.23 1005.30 1004.54 1003.60 1002.60 1002.86 1005.26 1008.67 1010.74 1013.17 1014.64 1015.50 1016.31 1016.36 1015.74 1014.84 1013.16 1011.47 1011.72 1011.85 1011.34 1011.66 1012.61 1013.41 1014.22 1014.94 1015.42 1015.92 1016.39 1016.89 1017.45 1018.01 1018.45 1018.74 1018.97 1018.76 1018.65 1018.85
1007.83 1007.20 1008.40 1008.53 1008.28 1007.64 1007.05 1005.92 1005.28 1003.94 1003.46 1003.31 1005.42 1009.62 1013.51 1015.12 1016.30 1016.83 1017.44 1017.45 1016.92 1016.18 1015.36 1014.60 1014.43 1013.40 1011.83 1011.99 1012.75 1013.20 1013.77 1014.40 1015.09 1015.44 1015.84 1016.46 1016.83 1017.26 1018.00 1018.23 1018.57 1018.75 1018.85 1018.88
1009.30 1007.91 1007.79 1008.85 1010.22 1010.09 1008.70 1007.42 1006.47 1004.72 1004.66 1004.74 1005.69 1012.02 1015.14 1016.50 1017.34 1017.65 1017.94 1018.03 1017.83 1017.34 1016.82 1016.30 1015.62 1015.46 1014.90 1014.19 1013.56 1013.48 1013.67 1013.86 1014.21 1014.88 1015.56 1015.94 1016.76 1016.92 1017.16 1017.73 1017.96 1018.26 1018.49 1018.59
1010.07 1009.00 1008.72 1009.50 1010.02 1010.26 1009.27 1008.99 1007.94 1006.97 1005.88 1005.46 1007.21 1012.74 1016.17 1017.38 1017.95 1018.26 1018.24 1018.23 1018.15 1017.96 1017.72 1017.61 1017.30 1017.16 1016.89 1016.68 1016.81 1015.73 1014.59 1013.92 1013.62 1014.31 1015.03 1015.68 1016.26 1016.61 1016.79 1016.98 1017.53 1017.77 1017.98 1018.22
1010.97 1009.83 1009.29 1008.78 1009.26 1009.34 1009.65 1009.67 1009.19 1007.88 1006.66 1006.62 1008.62 1013.43 1016.64 1017.74 1018.33 1018.62 1018.54 1018.44 1018.18 1017.99 1018.06 1018.12 1018.30 1018.47 1018.49 1018.77 1017.72 1017.90 1017.01 1015.42 1014.44 1014.36 1014.77 1015.41 1015.98 1016.28 1016.46 1016.78 1016.96 1017.33 1017.60 1017.81
1011.15 1010.46 1010.69 1010.80 1011.11 1010.98 1010.77 1010.42 1010.06 1009.13 1008.80 1008.60 1009.82 1013.75 1016.61 1017.83 1018.48 1018.79 1018.70 1018.60 1018.57 1018.52 1018.26 1018.28 1018.30 1018.76 1019.04 1019.00 1018.90 1019.06 1017.94 1017.11 1016.54 1015.42 1015.28 1015.18 1015.53 1016.27 1016.43 1016.50 1016.70 1016.78 1017.12 1017.31
1012.20 1011.60 1011.61 1011.59 1012.01 1011.77 1011.28 1011.14 1010.87 1010.50 1010.41 1010.34 1012.78 1015.44 1017.25 1018.09 1018.32 1018.60 1018.82 1018.79 1018.71 1018.76 1018.79 1018.75 1018.68 1018.67 1018.64 1018.93 1018.52 1018.32 1018.22 1018.31 1018.07 1017.13 1016.27 1015.77 1015.79 1015.80 1015.90 1016.11 1016.22 1016.42 1016.50 1016.76
1012.64 1012.27 1012.19 1011.38 1012.61 1012.26 1011.61 1010.89 1011.08 1011.16 1011.72 1011.18 1012.91 1015.12 1017.00 1017.66 1017.84 1018.22 1018.58 1018.88 1019.08 1019.22 1019.34 1019.26 1019.07 1019.01 1018.90 1018.65 1018.88 1018.68 1018.52 1018.97 1018.77 1018.24 1017.68 1017.42 1016.86 1016.26 1016.06 1016.01 1016.02 1016.08 1016.18 1016.29
1013.17 1012.98 1012.68 1011.54 1012.90 1012.16 1011.94 1012.22 1011.97 1012.18 1012.84 1012.99 1013.96 1015.66 1016.48 1017.26 1018.01 1018.58 1019.07 1019.30 1019.55 1019.82 1019.89 1019.79 1019.61 1019.54 1019.47 1019.29 1019.10 1019.00 1018.64 1018.78 1019.04 1018.91 1018.76 1018.46 1017.83 1017.14 1016.78 1016.49 1016.21 1016.06 1015.97 1015.90
1014.23 1013.45 1012.94 1012.57 1012.19 1012.42 1012.88 1013.22 1013.10 1012.96 1013.72 1013.96 1014.54 1015.76 1016.60 1017.38 1017.73 1018.78 1019.60 1020.05 1020.22 1020.35 1020.38 1020.36 1020.30 1020.24 1020.13 1019.92 1019.69 1019.46 1019.06 1018.87 1018.92 1019.03 1019.25 1019.02 1018.57 1018.22 1017.14 1017.10 1017.08 1016.74 1016.10 1015.72
1014.72 1014.64 1013.92 1013.22 1012.30 1011.80 1012.10 1013.15 1013.86 1014.08 1013.50 1014.78 1015.22 1016.07 1016.81 1017.34 1017.18 1017.60 1019.72 1020.26 1020.62 1020.82 1020.87 1020.88 1020.87 1020.69 1020.38 1020.33 1020.21 1020.14 1019.57 1019.24 1018.89 1018.75 1018.79 1019.08 1019.00 1017.90 1017.05 1017.72 1017.76 1017.17 1016.56 1015.88
1014.90 1014.66 1014.23 1013.62 1013.25 1012.43 1013.88 1014.64 1014.97 1014.75 1014.55 1014.98 1015.89 1016.70 1017.46 1017.48 1018.47 1019.70 1020.14 1020.54 1021.03 1021.25 1021.33 1021.50 1021.24 1020.94 1020.85 1020.84 1020.75 1020.52 1020.20 1019.64 1019.35 1019.11 1018.84 1018.59 1018.63 1018.72 1018.52 1017.78 1017.81 1017.48 1016.50 1016.02
1015.05 1014.81 1014.64 1014.32 1013.80 1013.84 1014.80 1015.64 1015.43 1015.57 1015.91 1016.49 1017.12 1017.81 1018.30 1018.91 1019.59 1020.07 1020.56 1020.84 1021.08 1021.20 1021.30 1021.39 1021.30 1021.27 1021.19 1021.05 1020.90 1020.57 1020.30 1020.11 1019.96 1019.57 1018.91 1018.51 1018.42 1018.17 1017.97 1017.88 1017.90 1017.24 1016.38 1015.93
1015.66 1015.18 1015.19 1014.68 1014.30 1015.38 1015.64 1016.06 1016.64 1016.66 1016.94 1017.49 1017.94 1018.58 1019.04 1019.39 1019.79 1020.29 1020.62 1020.95 1021.06 1021.11 1021.16 1021.25 1021.29 1021.30 1021.23 1021.05 1020.99 1020.65 1020.40 1020.42 1020.21 1019.73 1019.00 1018.41 1018.07 1018.00 1017.64 1017.42 1017.37 1016.82 1016.23 1016.03
1015.84 1016.25 1015.75 1015.62 1014.61 1015.66 1015.93 1016.94 1017.27 1017.48 1017.65 1018.21 1018.63 1019.10 1019.65 1019.78 1020.05 1020.32 1020.53 1020.79 1021.07 1021.18 1021.23 1021.31 1021.28 1021.08 1020.95 1020.95 1020.90 1020.74 1020.47 1020.26 1019.91 1019.32 1018.65 1017.92 1017.42 1017.19 1017.30 1017.00 1016.52 1016.60 1016.26 1015.32
1015.72 1016.28 1015.84 1015.43 1015.43 1016.14 1016.26 1016.65 1017.27 1017.86 1018.25 1018.62 1019.04 1019.41 1019.74 1020.02 1020.14 1020.33 1020.40 1020.70 1020.89 1021.10 1021.25 1021.36 1021.39 1021.08 1020.82 1020.70 1020.51 1020.33 1020.09 1019.89 1019.39 1018.78 1018.12 1017.34 1016.72 1016.30 1015.96 1015.79 1015.97 1015.90 1015.79 1015.63
1016.30 1016.00 1015.86 1015.20 1014.88 1015.36 1015.30 1016.29 1016.94 1017.62 1018.24 1018.60 1018.95 1019.37 1019.86 1020.14 1020.14 1020.31 1020.36 1020.50 1020.71 1020.86 1021.10 1021.18 1021.42 1021.36 1021.11 1020.90 1020.47 1020.06 1019.63 1019.37 1018.92 1018.24 1017.50 1016.68 1016.02 1015.62 1015.24 1014.89 1014.28 1014.53 1014.82 1014.60
Wind_Speed
15 11 15 17 16 8 11 9 10 6 14 9 10 10 12 12 13 13 13 16 18 18 17 17 14 13 13 13 12 12 11 11 9 7 7 6 6 6 3 3 2 5 4 5
11 15 14 12 7 9 12 12 12 9 7 7 5 8 4 14 11 12 14 14 14 18 19 17 15 14 13 13 13 13 12 12 10 7 5 3 5 5 5 5 4 4 6 5
14 12 11 13 13 13 13 13 10 10 7 5 6 11 12 6 7 6 11 14 16 17 20 19 17 15 13 13 13 13 13 12 10 7 5 4 3 3 6 6 4 5 6 6
10 9 17 15 15 15 14 4 4 8 9 9 13 2 9 11 11 7 7 8 12 12 16 18 19 18 15 14 14 14 13 12 11 9 6 7 7 5 4 6 8 5 5 5
8 14 17 15 13 11 5 9 10 8 10 3 15 12 10 10 10 5 10 9 10 14 14 17 20 19 17 15 14 15 14 13 12 11 9 6 9 6 5 4 9 7 5 5
8 2 10 11 9 12 5 10 8 8 10 11 11 12 9 6 7 5 4 1 9 14 13 15 17 18 16 15 14 14 15 13 14 13 12 10 7 6 3 5 5 7 8 7
10 10 5 2 12 11 13 16 11 12 10 9 11 9 10 7 7 7 10 7 4 7 15 14 17 18 17 17 15 14 14 14 15 15 14 13 12 10 8 6 7 5 6 5
12 14 4 1 6 9 18 18 9 12 13 12 6 8 8 8 9 13 11 10 10 9 10 14 18 17 19 18 17 15 16 16 16 16 16 13 13 10 9 9 8 6 6 6
9 8 6 4 3 7 19 13 7 7 6 10 13 12 12 7 11 13 14 14 14 15 6 18 19 18 17 16 17 16 15 15 16 16 13 14 13 13 10 9 8 8 6 4
3 9 1 4 3 3 7 2 10 9 13 14 12 14 11 6 9 12 15 15 15 16 19 5 9 15 14 15 14 15 13 12 13 14 14 13 14 13 12 10 10 10 7 8
2 6 9 7 4 3 7 9 10 9 6 14 10 9 6 9 8 11 12 14 15 15 16 15 15 15 4 9 10 12 14 14 12 14 13 13 12 13 12 12 12 12 10 9
5 5 6 9 7 1 3 5 10 10 13 10 8 10 8 9 8 9 11 13 15 16 16 16 17 15 15 17 9 8 9 10 11 10 11 13 11 9 13 12 12 12 12 11
3 2 8 9 10 6 3 1 3 8 9 15 12 12 8 10 9 9 11 12 13 15 17 17 17 16 15 15 12 14 7 9 10 11 10 11 12 13 11 13 12 12 12 13
5 1 7 4 9 5 7 3 2 9 12 11 9 18 11 11 9 8 10 12 13 14 16 15 16 14 14 10 11 12 10 12 6 7 8 9 11 12 13 10 11 13 12 12
4 2 1 4 4 2 1 3 3 7 5 10 17 18 12 11 10 9 7 10 11 12 14 15 15 15 15 14 9 8 11 12 12 7 7 8 9 9 12 11 12 13 13 13
2 4 4 4 1 3 7 5 7 5 4 4 20 10 12 10 11 10 10 8 10 12 13 13 14 15 14 15 14 13 11 11 10 10 8 7 7 6 9 10 11 12 14 14
4 6 8 8 2 4 9 13 11 7 5 7 12 13 12 13 10 9 8 9 9 10 11 12 13 13 14 13 13 14 12 12 10 10 9 8 8 7 8 9 10 12 13 13
5 7 4 4 7 10 8 3 3 8 6 3 15 17 15 11 9 8 7 7 8 9 10 10 10 12 13 14 13 13 12 11 11 10 10 11 10 7 8 9 9 10 11 12
5 6 4 6 11 5 7 8 11 14 10 7 12 13 11 9 9 10 6 5 6 7 8 8 9 11 11 11 13 13 12 11 10 12 11 12 11 9 6 8 9 9 10 10
6 6 8 6 7 7 10 12 4 2 10 13 12 12 11 8 9 9 4 4 6 7 8 9 11 10 10 11 12 12 12 11 11 11 11 8 11 10 11 6 7 9 9 11
8 7 10 9 8 1 6 9 8 9 7 15 10 8 6 5 9 6 5 6 6 7 8 9 9 10 10 10 11 11 11 11 11 12 12 11 8 8 7 8 7 8 7 8
7 6 5 8 6 12 11 10 9 8 11 10 7 6 5 4 3 3 3 4 6 8 8 9 9 10 11 11 11 12 11 11 12 13 13 11 11 9 8 10 8 7 6 8
5 5 3 5 2 5 10 3 6 5 8 5 5 5 3 1 1 3 5 6 7 9 9 9 10 11 11 10 10 13 12 12 13 14 14 13 11 10 10 8 12 8 6 6
7 5 6 2 8 6 11 7 7 5 5 6 5 6 5 3 3 5 6 7 8 9 10 11 13 14 13 11 12 13 14 14 14 15 15 13 12 11 11 9 7 8 9 5
2 8 9 8 4 4 9 13 11 7 5 6 6 6 5 4 5 6 8 9 9 9 10 10 12 14 15 14 14 14 14 14 15 15 14 14 12 12 10 10 8 7 9 10
6 7 6 5 3 9 2 14 12 11 10 9 9 8 7 7 7 7 9 9 10 11 12 11 12 14 16 17 18 18 16 15 15 15 13 12 10 10 10 10 11 11 14 16
Wind_Direction
191 201 204 190 211 310 175 194 148 122 147 182 190 144 150 173 180 179 185 189 188 187 180 175 180 174 171 173 174 178 177 161 174 175 185 180 193 139 196 173 165 143 161 148
174 221 194 183 179 207 202 176 134 113 148 230 121 119 108 169 189 190 188 193 195 186 180 181 185 178 180 177 177 177 181 173 187 182 212 235 175 173 199 208 152 150 156 153
197 192 166 194 188 201 203 200 159 156 148 182 169 119 126 132 138 159 187 192 204 187 184 187 192 188 185 176 182 181 183 182 192 199 194 202 155 156 169 156 173 161 173 162
225 149 183 195 194 213 186 236 190 172 209 181 149 182 72 140 129 142 169 185 191 199 192 188 192 193 193 188 182 184 185 190 192 192 196 199 210 189 147 168 136 162 173 164
170 176 191 195 195 211 212 157 209 206 227 194 182 219 95 91 102 121 165 174 207 191 194 201 196 194 198 195 190 188 189 194 203 194 225 192 252 173 182 174 139 159 171 191
133 172 201 202 183 210 120 175 172 211 227 223 176 246 85 74 31 60 75 72 197 193 211 224 201 193 200 197 199 194 192 197 201 202 205 210 240 240 169 216 155 169 170 181
161 169 128 268 192 198 206 184 170 193 206 229 145 226 63 81 70 46 30 17 323 272 190 208 226 198 196 200 197 199 196 203 203 206 209 210 219 227 220 196 221 207 184 180
180 169 192 332 281 190 208 206 200 188 195 178 149 164 112 80 68 61 37 19 7 306 243 211 217 208 201 201 199 201 198 204 205 206 209 210 213 222 224 213 251 202 223 185
203 102 124 58 16 287 183 233 320 274 226 200 136 89 118 103 66 53 35 17 15 351 262 208 202 211 205 202 206 202 207 204 209 210 209 208 208 220 223 243 212 221 234 196
98 133 76 99 217 135 297 221 209 237 183 216 153 171 92 78 45 45 30 20 17 24 23 70 168 224 224 201 205 205 201 205 215 215 211 210 207 210 217 220 223 240 215 241
276 256 132 194 347 17 176 208 235 280 277 217 157 123 89 83 41 55 42 33 28 34 37 38 33 9 287 208 207 220 212 214 206 219 219 213 215 207 211 213 215 221 217 214
23 306 159 96 127 63 322 346 270 234 199 258 291 101 99 98 69 63 56 48 43 44 43 43 39 45 26 21 330 230 226 220 219 224 221 220 221 215 209 220 217 214 218 214
4 220 164 167 173 178 216 99 275 265 271 230 245 118 127 110 91 64 65 59 57 53 47 43 45 41 34 28 11 350 300 241 236 206 222 224 222 216 219 219 222 220 216 222
269 142 307 329 42 47 172 176 299 273 243 235 238 127 139 125 110 85 69 52 56 58 57 52 48 42 36 27 27 1 348 345 316 296 212 238 240 232 231 230 224 224 220 218
315 193 256 65 66 27 318 229 221 256 315 274 122 129 142 130 118 102 76 84 70 50 43 45 45 43 36 30 29 4 6 3 343 296 275 248 214 206 244 228 232 229 225 223
316 164 201 171 307 265 249 226 222 211 204 188 107 111 134 125 134 119 98 80 64 49 40 34 31 29 35 29 18 23 14 2 356 358 336 306 299 282 229 247 238 238 234 228
234 163 206 210 215 223 236 210 204 164 217 199 178 139 158 149 136 113 96 75 60 44 30 22 19 19 13 18 22 11 24 20 3 358 357 345 357 331 279 262 250 245 241 241
198 201 208 134 191 224 69 71 196 186 165 141 104 144 162 147 133 122 82 59 43 29 16 9 4 4 1 0 8 359 360 20 9 14 3 358 347 352 345 321 273 255 251 246
285 218 178 220 215 91 170 191 174 173 169 176 144 149 152 157 164 144 115 45 21 6 356 351 354 348 341 348 354 349 344 351 358 2 357 351 352 335 354 329 314 330 277 253
208 257 273 192 253 237 81 153 177 159 205 183 167 162 162 177 209 106 97 32 2 352 348 340 335 323 331 338 340 340 331 336 338 345 345 345 329 332 352 325 309 305 302 275
199 221 232 220 246 144 105 146 176 209 82 150 173 151 164 217 37 77 29 19 359 345 337 338 326 323 328 327 325 316 317 320 332 329 324 331 338 323 315 307 295 289 293 269
201 214 208 243 250 239 134 155 211 70 118 134 139 138 133 104 100 60 24 349 336 338 335 334 324 324 321 318 311 305 302 313 318 314 310 308 312 316 312 314 299 289 297 279
226 227 235 238 53 113 169 357 115 128 128 136 149 138 140 166 342 348 327 326 325 323 326 324 322 316 309 313 309 300 302 307 304 300 297 297 296 297 301 301 303 298 280 289
217 201 239 259 188 185 176 162 165 169 157 165 176 168 183 240 286 305 309 318 316 314 317 320 316 311 308 309 304 296 294 295 292 289 287 283 284 284 284 289 279 285 290 287
220 166 214 237 201 200 194 189 181 180 172 175 178 197 223 261 281 305 311 314 312 309 307 318 314 308 304 304 301 295 291 287 283 280 281 281 278 278 283 269 281 279 273 288
199 210 199 237 255 212 200 195 190 190 197 201 204 204 221 245 280 303 306 314 316 315 315 310 313 312 313 310 302 298 291 282 276 275 267 264 278 284 278 286 287 215 236 255